This is the latest recevied weather packets stored in our database for station/object W5LND-10. If no packets are shown the sender has not sent any weather packets the latest 10 day(s).
| Time | Temp. | Humidity | Pressure | Rain* | Wind** | Luminosity | Snow |
|---|---|---|---|---|---|---|---|
| 1777248995 | 33.89° C | 13% | 997.2 hPa | 0 mm | - | 84 W/m² | - |
| 1777248695 | 33.89° C | 13% | 997.2 hPa | 0 mm | - | 98 W/m² | - |
| 1777248395 | 33.89° C | 13% | 997.1 hPa | 0 mm | - | 121 W/m² | - |
| 1777248095 | 34.44° C | 13% | 997.1 hPa | 0 mm | - | 139 W/m² | - |
| 1777247795 | 34.44° C | 13% | 997.2 hPa | 0 mm | - | 163 W/m² | - |
| 1777247495 | 34.44° C | 13% | 997.3 hPa | 0 mm | - | 190 W/m² | - |
| 1777247195 | 34.44° C | 13% | 997.4 hPa | 0 mm | - | 214 W/m² | - |
| 1777246895 | 34.44° C | 13% | 997.6 hPa | 0 mm | - | 236 W/m² | - |
| 1777246595 | 34.44° C | 13% | 997.4 hPa | 0 mm | - | 260 W/m² | - |
| 1777246295 | 34.44° C | 13% | 997.5 hPa | 0 mm | - | 285 W/m² | - |
| 1777245995 | 35° C | 12% | 997.4 hPa | 0 mm | - | 299 W/m² | - |
| 1777245695 | 35° C | 12% | 997.5 hPa | 0 mm | - | 329 W/m² | - |
| 1777245395 | 35° C | 12% | 997.5 hPa | 0 mm | - | 369 W/m² | - |
| 1777245095 | 35.56° C | 12% | 997.5 hPa | 0 mm | - | 413 W/m² | - |
| 1777244795 | 35° C | 13% | 997.6 hPa | 0 mm | - | 415 W/m² | - |
| 1777244495 | 35.56° C | 12% | 997.6 hPa | 0 mm | - | 422 W/m² | - |
| 1777244195 | 35° C | 12% | 997.5 hPa | 0 mm | - | 436 W/m² | - |
| 1777243895 | 35° C | 12% | 997.5 hPa | 0 mm | - | 478 W/m² | - |
| 1777243595 | 35° C | 12% | 997.5 hPa | 0 mm | - | 496 W/m² | - |
| 1777243295 | 35° C | 12% | 997.7 hPa | 0 mm | - | 499 W/m² | - |
| 1777242998 | 35.56° C | 12% | 997.6 hPa | 0 mm | - | 519 W/m² | - |
| 1777242695 | 35.56° C | 12% | 997.6 hPa | 0 mm | - | 547 W/m² | - |
| 1777242395 | 35.56° C | 12% | 997.6 hPa | 0 mm | - | 561 W/m² | - |
| 1777242095 | 35.56° C | 12% | 997.6 hPa | 0 mm | - | 555 W/m² | - |
| 1777241795 | 35.56° C | 12% | 997.6 hPa | 0 mm | - | 573 W/m² | - |
* Rain latest hour (hover to see other rain measurements)
** Current wind speed in m/s (hover to see current wind gust speed)